Los Alamitos, CA

7:36 AM PDT on May 30, 2017 (GMT -0700)
Los Alamitos Army Air Field

Weather History for KSLI - October, 2012

Change the Weather History Date:

Sunday, October 7, 2012

  Actual Average Record
Temperature  
Mean Temperature 70 °F -  
Max Temperature 77 °F 76 °F 97 °F (2008)
Min Temperature 62 °F 60 °F 50 °F (2011)
Cooling Degree Days 4    
Growing Degree Days 20 (Base 50)    
Moisture  
Dew Point 65 °F    
Average Humidity 90    
Maximum Humidity 100    
Minimum Humidity 67    
Precipitation  
Precipitation 0.00 in - - ()
Sea Level Pressure  
Sea Level Pressure 29.91 in    
Wind  
Wind Speed 2 mph (SW)    
Max Wind Speed 10 mph    
Max Gust Speed -    
Visibility 10 miles    
Events      
Averages and records for this station are not official NWS values.
T = Trace of Precipitation, MM = Missing Value Source: NWS Daily Summary

Daily Weather History Graph

Daily Weather History Graph

Search for Another Location

Airport or City:

Trip Planner

Search our weather history database for the weather conditions in past years. The results will help you decide how hot, cold, wet, or windy it might be!

Date:

Astronomy

Oct. 07, 2012 Rise Set
Actual Time 6:51 AM PDT 6:27 PM PDT
Civil Twilight 6:26 AM PDT 6:52 PM PDT
Nautical Twilight 5:57 AM PDT 7:21 PM PDT
Astronomical Twilight 5:28 AM PDT 7:50 PM PDT
Moon 11:54 PM PDT (10/7) 1:20 PM PDT (10/7)
Length of Visible Light 12h 26m
Length of Day
11h 36m
Waning Gibbous, 55% of the Moon is Illuminated
Oct 7
Waning Gibbous
Oct 8
Last Quarter
Oct 15
New
Oct 21
First Quarter
Oct 29
Full

Hourly Weather History & Observations

Time (PDT) Temp. Dew Point Humidity Pressure Visibility Wind Dir Wind Speed Gust Speed Precip Events Conditions
12:55 AM 66.0 °F 66.0 °F 100% 29.91 in 10.0 mi Calm Calm - N/A   Clear
1:27 AM 64.4 °F 64.4 °F 100% 29.91 in 10.0 mi Calm Calm - N/A   Mostly Cloudy
1:55 AM 65.3 °F 65.1 °F 99% 29.91 in 10.0 mi Calm Calm - N/A   Mostly Cloudy
2:05 AM 66.2 °F 66.2 °F 100% 29.91 in 10.0 mi Calm Calm - N/A   Scattered Clouds
2:55 AM 65.8 °F 65.8 °F 100% 29.90 in 10.0 mi Calm Calm - N/A   Scattered Clouds
3:02 AM 66.2 °F 66.2 °F 100% 29.90 in 10.0 mi Calm Calm - N/A   Mostly Cloudy
3:44 AM 66.2 °F 66.2 °F 100% 29.90 in 10.0 mi Calm Calm - N/A   Scattered Clouds
3:55 AM 65.7 °F 65.7 °F 100% 29.89 in 10.0 mi Calm Calm - N/A   Scattered Clouds
4:31 AM 64.4 °F 64.4 °F 100% 29.89 in 10.0 mi NE 4.6 mph - N/A   Mostly Cloudy
4:44 AM 64.4 °F 64.4 °F 100% 29.90 in 10.0 mi Calm Calm - N/A   Mostly Cloudy
4:55 AM 65.7 °F 65.7 °F 100% 29.90 in 10.0 mi NE 3.5 mph - N/A   Overcast
5:55 AM 65.1 °F 65.1 °F 100% 29.90 in 10.0 mi East 3.5 mph - N/A   Clear
6:55 AM 62.6 °F 62.6 °F 100% 29.91 in 10.0 mi NE 3.5 mph - N/A   Clear
7:55 AM 64.9 °F 64.8 °F 99% 29.93 in 10.0 mi Calm Calm - N/A   Partly Cloudy
8:55 AM 68.7 °F 65.1 °F 88% 29.94 in 10.0 mi Calm Calm - N/A   Scattered Clouds
9:55 AM 72.0 °F 65.7 °F 80% 29.94 in 10.0 mi Calm Calm - N/A   Scattered Clouds
10:55 AM 74.5 °F 65.5 °F 73% 29.93 in 10.0 mi Variable 5.8 mph - N/A   Partly Cloudy
11:55 AM 76.6 °F 66.6 °F 71% 29.92 in 10.0 mi SSW 9.2 mph - N/A   Partly Cloudy
12:55 PM 76.6 °F 66.2 °F 70% 29.91 in 10.0 mi SW 10.4 mph - N/A   Partly Cloudy
1:55 PM 77.2 °F 65.5 °F 67% 29.89 in 10.0 mi SSW 8.1 mph - N/A   Partly Cloudy
2:55 PM 77.0 °F 65.5 °F 67% 29.88 in 10.0 mi South 10.4 mph - N/A   Partly Cloudy
3:55 PM 76.8 °F 66.9 °F 71% 29.87 in 10.0 mi South 9.2 mph - N/A   Clear
4:55 PM 75.0 °F 66.4 °F 74% 29.87 in 10.0 mi South 8.1 mph - N/A   Clear
5:55 PM 74.7 °F 65.3 °F 73% 29.87 in 10.0 mi West 5.8 mph - N/A   Clear
6:55 PM 70.7 °F 64.8 °F 81% 29.89 in 10.0 mi West 3.5 mph - N/A   Clear
7:55 PM 68.7 °F 64.6 °F 87% 29.91 in 10.0 mi WNW 4.6 mph - N/A   Clear
8:55 PM 66.9 °F 65.1 °F 94% 29.92 in 10.0 mi WNW 5.8 mph - N/A   Clear
9:55 PM 66.0 °F 65.7 °F 99% 29.93 in 10.0 mi Calm Calm - N/A   Clear
10:55 PM 63.9 °F 63.9 °F 100% 29.93 in 10.0 mi Calm Calm - N/A   Clear
11:55 PM 63.0 °F 63.0 °F 100% 29.93 in 10.0 mi Calm Calm - N/A   Clear